NEA360 EHAM-KIAD

Flight info

Callsign NEA360
Flight time N/A
Altitude 36000
Route BERGI L602 NALAX L46 GETNO DCT REMSI DCT NIBOG DCT PIKIL/M081F380 DCT 56N020W 55N030W 53N040W 51N050W DCT ALLRY/N0471F380 N476B TOPPS/N0479F400 DCT KAYCC DCT KYLOH DCT BAF HYPER9
Aircraft A339/H-SADE1E2E3GHIJ3J5M1P2RWXY/LB2D1

Departure

Time 2026-05-08 01:29
Airport Amsterdam Airport Schiphol (EHAM)

Arrival

Time N/A
Airport Washington Dulles International Airport (KIAD)
Time Latitude Longitude Altitude Speed Heading
2026-05-08 00:20 52.31320 4.76666 12 ft 0 kts 123°
2026-05-08 01:12 52.31324 4.76656 12 ft 2 kts 120°
2026-05-08 01:13 52.31330 4.76633 12 ft 2 kts 106°
2026-05-08 01:13 52.31333 4.76609 12 ft 2 kts 96°
2026-05-08 01:13 52.31334 4.76585 12 ft 2 kts 85°
2026-05-08 01:13 52.31332 4.76561 12 ft 2 kts 75°
2026-05-08 01:14 52.31326 4.76537 12 ft 2 kts 64°
2026-05-08 01:14 52.31319 4.76515 12 ft 2 kts 53°
2026-05-08 01:14 52.31309 4.76497 12 ft 2 kts 43°
2026-05-08 01:14 52.31296 4.76481 12 ft 2 kts 32°
2026-05-08 01:15 52.31292 4.76477 12 ft 0 kts 31°
2026-05-08 01:18 52.31297 4.76481 12 ft 2 kts 31°
2026-05-08 01:19 52.31317 4.76501 12 ft 4 kts 33°
2026-05-08 01:19 52.31352 4.76538 11 ft 7 kts 33°
2026-05-08 01:19 52.31401 4.76590 11 ft 9 kts 33°
2026-05-08 01:19 52.31464 4.76644 10 ft 11 kts 26°
2026-05-08 01:20 52.31538 4.76651 9 ft 11 kts 319°
2026-05-08 01:20 52.31550 4.76516 8 ft 13 kts 265°
2026-05-08 01:20 52.31544 4.76347 8 ft 16 kts 266°
2026-05-08 01:20 52.31536 4.76150 7 ft 18 kts 267°
2026-05-08 01:21 52.31529 4.75926 7 ft 20 kts 267°
2026-05-08 01:21 52.31522 4.75688 6 ft 21 kts 267°
2026-05-08 01:21 52.31514 4.75430 6 ft 23 kts 266°
2026-05-08 01:21 52.31499 4.75158 4 ft 24 kts 265°
2026-05-08 01:22 52.31493 4.74867 3 ft 25 kts 268°
2026-05-08 01:22 52.31483 4.74582 2 ft 23 kts 268°
2026-05-08 01:22 52.31473 4.74352 2 ft 10 kts 263°
2026-05-08 01:22 52.31410 4.74282 2 ft 15 kts 186°
2026-05-08 01:23 52.31292 4.74271 2 ft 18 kts 184°
2026-05-08 01:23 52.31164 4.74261 1 ft 18 kts 182°
2026-05-08 01:23 52.31034 4.74244 1 ft 18 kts 183°
2026-05-08 01:23 52.30898 4.74235 0 ft 20 kts 182°
2026-05-08 01:24 52.30750 4.74220 0 ft 21 kts 184°
2026-05-08 01:24 52.30594 4.74207 -1 ft 22 kts 181°
2026-05-08 01:24 52.30455 4.74202 -2 ft 9 kts 183°
2026-05-08 01:24 52.30390 4.74192 -2 ft 10 kts 190°
2026-05-08 01:25 52.30318 4.74158 -2 ft 10 kts 216°
2026-05-08 01:25 52.30298 4.74135 -2 ft 0 kts 211°
2026-05-08 01:25 52.30296 4.74132 -2 ft 0 kts 220°
2026-05-08 01:25 52.30294 4.74122 -2 ft 1 kts 266°
2026-05-08 01:26 52.30304 4.74103 -2 ft 4 kts 315°
2026-05-08 01:26 52.30321 4.74057 -2 ft 4 kts 262°
2026-05-08 01:26 52.30289 4.73993 -2 ft 12 kts 220°
2026-05-08 01:26 52.30212 4.73901 -2 ft 13 kts 222°
2026-05-08 01:27 52.30191 4.73778 -2 ft 7 kts 290°
2026-05-08 01:27 52.30237 4.73742 -1 ft 8 kts 354°
2026-05-08 01:27 52.30297 4.73743 -1 ft 0 kts
2026-05-08 01:28 52.30313 4.73745 -1 ft 12 kts
2026-05-08 01:28 52.30644 4.73778 -1 ft 80 kts
2026-05-08 01:28 52.31410 4.73846 3 ft 137 kts
2026-05-08 01:28 52.32513 4.73938 43 ft 179 kts
2026-05-08 01:29 52.33786 4.74045 594 ft 182 kts
2026-05-08 01:29 52.35019 4.74182 1317 ft 179 kts
2026-05-08 01:29 52.36248 4.74284 1910 ft 181 kts
2026-05-08 01:29 52.37541 4.74404 2269 ft 194 kts
2026-05-08 01:30 52.38940 4.74439 2571 ft 211 kts 352°
2026-05-08 01:30 52.40342 4.73439 2881 ft 231 kts 327°
2026-05-08 01:30 52.41682 4.71841 3218 ft 249 kts 324°
2026-05-08 01:30 52.43129 4.70071 3617 ft 264 kts 325°
2026-05-08 01:31 52.44630 4.68321 4257 ft 269 kts 326°
2026-05-08 01:31 52.46167 4.66598 4970 ft 271 kts 327°
2026-05-08 01:31 52.47738 4.64883 5639 ft 273 kts 327°
2026-05-08 01:31 52.49333 4.63168 6323 ft 275 kts 327°
2026-05-08 01:32 52.50938 4.61453 6962 ft 278 kts 327°
2026-05-08 01:32 52.52576 4.59713 7610 ft 280 kts 327°
2026-05-08 01:32 52.54224 4.57962 8238 ft 283 kts 327°
2026-05-08 01:32 52.55877 4.56207 8880 ft 285 kts 327°
2026-05-08 01:33 52.57560 4.54418 9492 ft 287 kts 327°
2026-05-08 01:33 52.59222 4.52650 10072 ft 290 kts 327°
2026-05-08 01:33 52.60939 4.50821 10542 ft 298 kts 327°
2026-05-08 01:33 52.62723 4.48918 10819 ft 313 kts 327°
2026-05-08 01:34 52.64572 4.46944 11080 ft 328 kts 327°
2026-05-08 01:34 52.66524 4.44859 11357 ft 342 kts 327°
2026-05-08 01:34 52.68555 4.42687 11808 ft 350 kts 327°
2026-05-08 01:34 52.70610 4.40487 12436 ft 353 kts 327°
2026-05-08 01:35 52.72663 4.38283 13073 ft 355 kts 326°
2026-05-08 01:35 52.74555 4.35668 13678 ft 357 kts 313°
2026-05-08 01:35 52.76096 4.32414 14311 ft 358 kts 301°
2026-05-08 01:35 52.77351 4.28840 14930 ft 360 kts 298°
2026-05-08 01:36 52.78553 4.25246 15515 ft 363 kts 298°
2026-05-08 01:36 52.79781 4.21560 16112 ft 366 kts 298°
2026-05-08 01:36 52.81012 4.17878 16703 ft 369 kts 298°
2026-05-08 01:36 52.82263 4.14149 17285 ft 372 kts 298°
2026-05-08 01:37 52.83515 4.10425 17853 ft 374 kts 298°
2026-05-08 01:37 52.84774 4.06682 18421 ft 377 kts 298°
2026-05-08 01:37 52.86063 4.02848 18976 ft 380 kts 298°
2026-05-08 01:37 52.87355 3.99003 19528 ft 383 kts 298°
2026-05-08 01:38 52.88651 3.95141 20079 ft 386 kts 298°
2026-05-08 01:38 52.89957 3.91243 20615 ft 388 kts 297°
2026-05-08 01:38 52.91270 3.87319 21137 ft 391 kts 297°
2026-05-08 01:38 52.92598 3.83344 21656 ft 393 kts 297°
2026-05-08 01:39 52.93912 3.79401 22152 ft 395 kts 297°
2026-05-08 01:39 52.95237 3.75417 22633 ft 398 kts 297°
2026-05-08 01:39 52.96559 3.71439 23112 ft 400 kts 297°
2026-05-08 01:39 52.97905 3.67380 23577 ft 402 kts 297°
2026-05-08 01:40 52.99261 3.63287 24027 ft 404 kts 297°
2026-05-08 01:40 53.00602 3.59235 24448 ft 406 kts 297°
2026-05-08 01:40 53.01964 3.55112 24857 ft 409 kts 297°
2026-05-08 01:40 53.03346 3.50917 25265 ft 411 kts 297°
2026-05-08 01:41 53.04715 3.46756 25665 ft 413 kts 297°
2026-05-08 01:41 53.06097 3.42547 26032 ft 415 kts 297°
2026-05-08 01:41 53.07487 3.38302 26392 ft 418 kts 297°
2026-05-08 01:41 53.08845 3.33950 26749 ft 419 kts 293°
2026-05-08 01:42 53.09941 3.29527 27098 ft 420 kts 288°
2026-05-08 01:42 53.10808 3.24840 27437 ft 421 kts 283°
2026-05-08 01:42 53.11476 3.20088 27773 ft 423 kts 281°
2026-05-08 01:42 53.12106 3.15334 28102 ft 424 kts 281°
2026-05-08 01:43 53.12734 3.10535 28441 ft 426 kts 281°
2026-05-08 01:43 53.13362 3.05725 28756 ft 428 kts 281°
2026-05-08 01:43 53.13996 3.00885 29045 ft 430 kts 281°
2026-05-08 01:43 53.14624 2.96079 29325 ft 433 kts 281°
2026-05-08 01:44 53.15263 2.91179 29624 ft 434 kts 281°
2026-05-08 01:44 53.15905 2.86250 29937 ft 436 kts 281°
2026-05-08 01:44 53.16545 2.81325 30213 ft 438 kts 281°
2026-05-08 01:44 53.17182 2.76399 30484 ft 439 kts 281°
2026-05-08 01:45 53.17828 2.71403 30757 ft 441 kts 281°
2026-05-08 01:45 53.18462 2.66468 31008 ft 443 kts 281°
2026-05-08 01:45 53.19107 2.61440 31297 ft 443 kts 281°
2026-05-08 01:45 53.19743 2.56458 31630 ft 443 kts 281°
2026-05-08 01:46 53.20383 2.51419 31977 ft 441 kts 281°
2026-05-08 01:46 53.21012 2.46452 32304 ft 440 kts 281°
2026-05-08 01:46 53.21639 2.41484 32610 ft 440 kts 281°
2026-05-08 01:46 53.22266 2.36498 32881 ft 440 kts 281°
2026-05-08 01:47 53.22877 2.31616 33165 ft 440 kts 280°
2026-05-08 01:47 53.23499 2.26635 33452 ft 439 kts 280°
2026-05-08 01:47 53.24118 2.21655 33715 ft 439 kts 280°
2026-05-08 01:48 53.25349 2.11694 34275 ft 438 kts 280°
2026-05-08 01:48 53.25960 2.06721 34531 ft 438 kts 280°
2026-05-08 01:48 53.26563 2.01794 34720 ft 439 kts 280°
2026-05-08 01:48 53.27172 1.96810 34894 ft 440 kts 280°
2026-05-08 01:49 53.27778 1.91828 35063 ft 441 kts 280°
2026-05-08 01:49 53.28392 1.86764 35219 ft 441 kts 280°
2026-05-08 01:49 53.28996 1.81766 35354 ft 442 kts 280°
2026-05-08 01:49 53.29597 1.76779 35489 ft 444 kts 280°
2026-05-08 01:50 53.30207 1.71687 35618 ft 445 kts 280°
2026-05-08 01:50 53.30808 1.66656 35758 ft 446 kts 280°
2026-05-08 01:50 53.31408 1.61607 35885 ft 446 kts 280°
2026-05-08 01:50 53.32010 1.56515 36018 ft 447 kts 280°
2026-05-08 01:51 53.33332 1.46387 36095 ft 450 kts 282°
2026-05-08 01:51 53.34808 1.36251 36099 ft 449 kts 283°
2026-05-08 01:52 53.36271 1.26167 36104 ft 449 kts 282°
2026-05-08 01:52 53.37734 1.16003 36106 ft 449 kts 282°
2026-05-08 01:53 53.39185 1.05842 36103 ft 449 kts 282°
2026-05-08 01:53 53.40621 0.95713 36101 ft 448 kts 282°
2026-05-08 01:54 53.42045 0.85593 36099 ft 449 kts 282°
2026-05-08 01:54 53.43465 0.75435 36095 ft 449 kts 282°
2026-05-08 01:55 53.44870 0.65330 36092 ft 449 kts 282°
2026-05-08 01:55 53.46272 0.55171 36093 ft 449 kts 282°
2026-05-08 01:56 53.47672 0.44952 36085 ft 449 kts 282°
2026-05-08 01:56 53.49060 0.34752 36085 ft 449 kts 281°
2026-05-08 01:57 53.50440 0.24536 36081 ft 449 kts 281°
2026-05-08 01:57 53.51809 0.14333 36081 ft 449 kts 281°
2026-05-08 01:58 53.53162 0.04180 36075 ft 449 kts 281°
2026-05-08 01:58 53.54518 -0.06064 36069 ft 449 kts 281°
2026-05-08 01:59 53.55857 -0.16246 36066 ft 449 kts 281°
2026-05-08 01:59 53.57190 -0.26478 36067 ft 449 kts 281°
2026-05-08 02:00 53.58515 -0.36714 36067 ft 449 kts 281°
2026-05-08 02:00 53.59833 -0.46967 36063 ft 450 kts 281°
2026-05-08 02:01 53.61139 -0.57197 36057 ft 450 kts 281°
2026-05-08 02:01 53.62442 -0.67481 36056 ft 450 kts 280°
2026-05-08 02:02 53.63732 -0.77731 36052 ft 449 kts 280°
2026-05-08 02:02 53.65013 -0.88009 36048 ft 449 kts 280°
2026-05-08 02:03 53.66287 -0.98290 36044 ft 449 kts 280°
2026-05-08 02:03 53.67553 -1.08589 36040 ft 449 kts 280°
2026-05-08 02:04 53.68812 -1.18902 36037 ft 449 kts 280°
2026-05-08 02:04 53.70058 -1.29185 36035 ft 449 kts 279°
2026-05-08 02:05 53.71301 -1.39536 36034 ft 449 kts 279°
2026-05-08 02:05 53.72523 -1.49791 36032 ft 449 kts 279°
2026-05-08 02:06 53.73737 -1.60109 36033 ft 449 kts 279°
2026-05-08 02:06 53.74874 -1.70480 36033 ft 449 kts 278°
2026-05-08 02:07 53.75994 -1.80855 36034 ft 449 kts 278°
2026-05-08 02:07 53.77105 -1.91196 36030 ft 449 kts 278°
2026-05-08 02:08 53.78216 -2.01604 36024 ft 448 kts 278°
2026-05-08 02:08 53.79313 -2.11971 36027 ft 448 kts 278°
2026-05-08 02:09 53.80394 -2.22288 36023 ft 447 kts 278°
2026-05-08 02:09 53.81468 -2.32603 36026 ft 447 kts 278°
2026-05-08 02:10 53.82535 -2.42956 36018 ft 447 kts 278°
2026-05-08 02:10 53.83593 -2.53311 36015 ft 446 kts 278°
2026-05-08 02:11 53.84643 -2.63658 36016 ft 445 kts 278°
2026-05-08 02:11 53.85672 -2.73914 36017 ft 444 kts 277°
2026-05-08 02:12 53.86699 -2.84224 36023 ft 444 kts 277°
2026-05-08 02:12 53.87714 -2.94525 36022 ft 444 kts 277°
2026-05-08 02:13 53.88728 -3.04892 36027 ft 443 kts 277°
2026-05-08 02:13 53.89723 -3.15178 36021 ft 443 kts 277°
2026-05-08 02:14 53.90705 -3.25413 36022 ft 443 kts 277°
2026-05-08 02:14 53.91680 -3.35670 36028 ft 442 kts 277°
2026-05-08 02:15 53.92639 -3.45867 36019 ft 440 kts 277°
2026-05-08 02:15 53.93595 -3.56118 36017 ft 440 kts 277°
2026-05-08 02:16 53.94535 -3.66309 36007 ft 440 kts 277°
2026-05-08 02:16 53.95493 -3.76559 36015 ft 440 kts 278°
2026-05-08 02:17 53.96868 -3.86580 36009 ft 442 kts 284°
2026-05-08 02:17 53.98749 -3.96482 36010 ft 442 kts 286°
2026-05-08 02:18 54.00702 -4.06374 35997 ft 440 kts 286°
2026-05-08 02:18 54.02621 -4.16155 35990 ft 439 kts 286°
2026-05-08 02:19 54.04537 -4.25974 35986 ft 439 kts 286°
2026-05-08 02:19 54.06444 -4.35814 35983 ft 439 kts 286°
2026-05-08 02:20 54.08330 -4.45589 35975 ft 438 kts 286°
2026-05-08 02:20 54.10214 -4.55406 35972 ft 437 kts 286°
2026-05-08 02:21 54.12087 -4.65216 35978 ft 437 kts 285°
2026-05-08 02:21 54.13965 -4.75111 35980 ft 436 kts 285°
2026-05-08 02:22 54.15808 -4.84859 35986 ft 436 kts 285°
2026-05-08 02:22 54.17652 -4.94680 35985 ft 435 kts 285°
2026-05-08 02:23 54.19490 -5.04513 35988 ft 435 kts 285°
2026-05-08 02:23 54.21314 -5.14317 35987 ft 434 kts 285°
2026-05-08 02:24 54.23117 -5.24060 35989 ft 433 kts 285°
2026-05-08 02:24 54.24917 -5.33837 35989 ft 433 kts 285°
2026-05-08 02:25 54.26705 -5.43605 35990 ft 432 kts 285°
2026-05-08 02:25 54.28481 -5.53369 35991 ft 432 kts 285°
2026-05-08 02:26 54.30256 -5.63161 35987 ft 431 kts 284°
2026-05-08 02:26 54.32012 -5.72917 35990 ft 430 kts 283°
2026-05-08 02:27 54.33762 -5.82675 35985 ft 429 kts 283°
2026-05-08 02:27 54.35499 -5.92422 35982 ft 429 kts 283°
2026-05-08 02:28 54.37242 -6.02265 35973 ft 429 kts 283°
2026-05-08 02:28 54.38979 -6.12114 35976 ft 429 kts 283°
2026-05-08 02:29 54.40686 -6.21845 35977 ft 429 kts 283°
2026-05-08 02:29 54.42392 -6.31626 35977 ft 427 kts 283°
2026-05-08 02:30 54.44073 -6.41320 35971 ft 427 kts 283°
2026-05-08 02:30 54.45762 -6.51113 35975 ft 428 kts 283°
2026-05-08 02:31 54.47442 -6.60900 35971 ft 427 kts 283°
2026-05-08 02:31 54.49115 -6.70714 35975 ft 427 kts 282°
2026-05-08 02:32 54.50771 -6.80464 35980 ft 426 kts 282°
2026-05-08 02:32 54.52420 -6.90240 35965 ft 426 kts 282°
2026-05-08 02:33 54.54068 -7.00066 35974 ft 426 kts 282°
2026-05-08 02:33 54.55712 -7.09926 35967 ft 427 kts 282°
2026-05-08 02:34 54.57333 -7.19700 35967 ft 427 kts 282°
2026-05-08 02:34 54.58951 -7.29507 35972 ft 428 kts 282°
2026-05-08 02:35 54.60572 -7.39388 35974 ft 428 kts 282°
2026-05-08 02:35 54.62179 -7.49236 35954 ft 428 kts 282°
2026-05-08 02:36 54.63784 -7.59131 35966 ft 428 kts 282°
2026-05-08 02:36 54.65367 -7.68955 35948 ft 428 kts 281°
2026-05-08 02:37 54.66968 -7.78947 35968 ft 428 kts 281°
2026-05-08 02:37 54.68554 -7.88904 35966 ft 428 kts 281°
2026-05-08 02:38 54.70139 -7.98910 35968 ft 429 kts 281°
2026-05-08 02:38 54.71705 -8.08868 35951 ft 429 kts 281°
2026-05-08 02:39 54.73257 -8.18785 35969 ft 429 kts 281°
2026-05-08 02:39 54.74803 -8.28721 35951 ft 430 kts 281°
2026-05-08 02:40 54.76349 -8.38718 35948 ft 430 kts 281°
2026-05-08 02:40 54.77882 -8.48698 35970 ft 430 kts 281°
2026-05-08 02:41 54.79413 -8.58719 35961 ft 431 kts 281°
2026-05-08 02:41 54.80928 -8.68706 35981 ft 430 kts 280°
2026-05-08 02:42 54.82439 -8.78728 35978 ft 430 kts 280°
2026-05-08 02:42 54.83935 -8.88701 35971 ft 430 kts 280°
2026-05-08 02:43 54.85430 -8.98744 35974 ft 431 kts 280°
2026-05-08 02:43 54.86914 -9.08772 35963 ft 431 kts 280°
2026-05-08 02:44 54.88395 -9.18825 35949 ft 431 kts 280°
2026-05-08 02:44 54.89873 -9.28933 35962 ft 431 kts 280°
2026-05-08 02:45 54.91329 -9.38961 35958 ft 432 kts 280°
2026-05-08 02:45 54.92794 -9.49110 35972 ft 433 kts 280°
2026-05-08 02:46 54.94243 -9.59217 35957 ft 434 kts 280°
2026-05-08 02:46 54.95694 -9.69405 35970 ft 434 kts 279°
2026-05-08 02:47 54.97127 -9.79520 35968 ft 433 kts 279°
2026-05-08 02:47 54.98551 -9.89657 35986 ft 433 kts 279°
2026-05-08 02:48 55.00106 -9.99806 36004 ft 437 kts 283°
2026-05-08 02:48 55.02164 -10.09696 35993 ft 439 kts 287°
2026-05-08 02:49 55.04382 -10.19583 35999 ft 439 kts 287°
2026-05-08 02:49 55.06598 -10.29489 36011 ft 440 kts 287°
2026-05-08 02:50 55.08804 -10.39405 36012 ft 440 kts 287°
2026-05-08 02:50 55.11005 -10.49352 36002 ft 440 kts 287°
2026-05-08 02:51 55.13179 -10.59233 35998 ft 440 kts 287°
2026-05-08 02:51 55.15374 -10.69252 36005 ft 440 kts 286°
2026-05-08 02:52 55.17537 -10.79172 36008 ft 440 kts 286°
2026-05-08 02:52 55.19709 -10.89183 36005 ft 440 kts 287°
2026-05-08 02:53 55.21873 -10.99200 35995 ft 441 kts 287°
2026-05-08 02:53 55.24020 -11.09190 35997 ft 441 kts 287°
2026-05-08 02:54 55.26174 -11.19266 36001 ft 442 kts 287°
2026-05-08 02:54 55.28315 -11.29335 36007 ft 442 kts 287°
2026-05-08 02:55 55.31500 -11.44389 36004 ft 442 kts 287°
2026-05-08 02:56 55.33633 -11.54546 36003 ft 442 kts 287°
2026-05-08 02:56 55.35744 -11.64644 36004 ft 443 kts 287°
2026-05-08 02:57 55.37844 -11.74733 36006 ft 443 kts 286°
2026-05-08 02:57 55.39950 -11.84908 36004 ft 444 kts 286°
2026-05-08 02:58 55.42046 -11.95088 36003 ft 444 kts 286°
2026-05-08 02:58 55.44131 -12.05268 36000 ft 446 kts 286°
2026-05-08 02:59 55.46221 -12.15521 36007 ft 446 kts 286°
2026-05-08 02:59 55.48293 -12.25745 36007 ft 446 kts 286°
2026-05-08 03:00 55.50363 -12.35998 36006 ft 446 kts 286°
2026-05-08 03:00 55.52424 -12.46270 36008 ft 447 kts 286°
2026-05-08 03:01 55.54488 -12.56602 36005 ft 447 kts 286°
2026-05-08 03:01 55.56545 -12.66959 36011 ft 447 kts 285°
2026-05-08 03:02 55.58577 -12.77252 36019 ft 447 kts 285°
2026-05-08 03:02 55.60622 -12.87664 36021 ft 449 kts 286°
2026-05-08 03:03 55.62656 -12.98065 36023 ft 449 kts 285°
2026-05-08 03:03 55.64675 -13.08439 36032 ft 449 kts 285°
2026-05-08 03:04 55.66684 -13.18841 36025 ft 449 kts 286°
2026-05-08 03:04 55.68691 -13.29271 36029 ft 449 kts 286°
2026-05-08 03:05 55.70688 -13.39718 36030 ft 449 kts 286°
2026-05-08 03:05 55.72682 -13.50196 36036 ft 450 kts 286°
2026-05-08 03:06 55.74668 -13.60695 36030 ft 450 kts 286°
2026-05-08 03:06 55.76631 -13.71129 36036 ft 450 kts 285°
2026-05-08 03:07 55.78594 -13.81623 36034 ft 450 kts 285°
2026-05-08 03:07 55.80563 -13.92203 36026 ft 451 kts 285°
2026-05-08 03:08 55.82510 -14.02724 36032 ft 451 kts 285°
2026-05-08 03:08 55.84444 -14.13238 36027 ft 450 kts 286°
2026-05-08 03:09 55.86375 -14.23796 36038 ft 451 kts 286°
2026-05-08 03:09 55.88311 -14.34430 36040 ft 452 kts 286°
2026-05-08 03:10 55.90230 -14.45037 36042 ft 452 kts 286°
2026-05-08 03:10 55.92145 -14.55686 36041 ft 453 kts 286°
2026-05-08 03:11 55.94045 -14.66306 36046 ft 453 kts 285°
2026-05-08 03:11 55.95943 -14.76984 36042 ft 453 kts 285°
2026-05-08 03:12 55.97829 -14.87704 36045 ft 453 kts 284°
2026-05-08 03:12 55.99288 -14.98560 36054 ft 451 kts 279°
2026-05-08 03:13 56.00097 -15.09625 36052 ft 450 kts 273°
2026-05-08 03:13 56.00368 -15.20742 36058 ft 450 kts 271°
2026-05-08 03:14 56.00565 -15.31837 36059 ft 451 kts 271°
2026-05-08 03:14 56.00755 -15.43033 36059 ft 452 kts 271°
2026-05-08 03:15 56.00936 -15.54183 36064 ft 452 kts 271°
2026-05-08 03:15 56.01109 -15.65356 36063 ft 452 kts 270°
2026-05-08 03:16 56.01270 -15.76555 36067 ft 452 kts 270°
2026-05-08 03:16 56.01422 -15.87704 36070 ft 452 kts 270°
2026-05-08 03:17 56.01566 -15.98881 36074 ft 452 kts 270°
2026-05-08 03:17 56.01699 -16.10080 36075 ft 453 kts 270°
2026-05-08 03:18 56.01820 -16.21292 36075 ft 454 kts 271°
2026-05-08 03:18 56.01933 -16.32531 36080 ft 454 kts 271°
2026-05-08 03:19 56.02035 -16.43780 36082 ft 454 kts 271°
2026-05-08 03:19 56.02127 -16.55000 36083 ft 454 kts 271°
2026-05-08 03:20 56.02210 -16.66250 36087 ft 454 kts 270°
2026-05-08 03:20 56.02281 -16.77463 36089 ft 454 kts 270°
2026-05-08 03:21 56.02343 -16.88669 36090 ft 454 kts 270°
2026-05-08 03:21 56.02394 -16.99967 36096 ft 456 kts 270°
2026-05-08 03:22 56.02435 -17.11224 36098 ft 456 kts 270°
2026-05-08 03:22 56.02465 -17.22539 36102 ft 456 kts 270°
2026-05-08 03:23 56.02486 -17.33751 36104 ft 456 kts 270°
2026-05-08 03:23 56.02497 -17.45085 36107 ft 456 kts 270°
2026-05-08 03:24 56.02497 -17.56324 36109 ft 456 kts 271°
2026-05-08 03:24 56.02486 -17.67610 36111 ft 456 kts 270°
2026-05-08 03:25 56.02466 -17.78882 36113 ft 457 kts 270°
2026-05-08 03:25 56.02435 -17.90260 36115 ft 458 kts 270°
2026-05-08 03:26 56.02394 -18.01591 36118 ft 458 kts 270°
2026-05-08 03:26 56.02343 -18.12896 36120 ft 457 kts 270°
2026-05-08 03:27 56.02280 -18.24296 36123 ft 457 kts 270°
2026-05-08 03:27 56.02208 -18.35576 36126 ft 457 kts 270°
2026-05-08 03:28 56.02125 -18.46869 36126 ft 457 kts 270°
2026-05-08 03:28 56.02032 -18.58233 36129 ft 458 kts 270°
2026-05-08 03:29 56.01928 -18.69550 36133 ft 459 kts 270°
2026-05-08 03:29 56.01815 -18.80886 36135 ft 459 kts 270°
2026-05-08 03:30 56.01623 -18.97882 36137 ft 458 kts 270°
2026-05-08 03:31 56.01333 -19.20602 36153 ft 459 kts 270°
2026-05-08 03:32 56.01086 -19.37735 36165 ft 460 kts 270°
2026-05-08 03:32 56.00910 -19.49082 36170 ft 461 kts 270°
2026-05-08 03:33 56.00722 -19.60470 36173 ft 460 kts 270°
2026-05-08 03:33 56.00525 -19.71857 36173 ft 460 kts 269°
2026-05-08 03:34 56.00317 -19.83257 36172 ft 460 kts 269°
2026-05-08 03:34 56.00097 -19.94609 36165 ft 461 kts 270°
2026-05-08 03:35 55.99646 -20.05968 36165 ft 462 kts 266°
2026-05-08 03:36 55.98280 -20.29028 36167 ft 462 kts 266°
2026-05-08 03:36 55.97596 -20.40330 36168 ft 462 kts 266°
2026-05-08 03:37 55.96898 -20.51727 36171 ft 463 kts 266°
2026-05-08 03:37 55.96191 -20.63081 36174 ft 463 kts 266°
2026-05-08 03:38 55.95473 -20.74450 36175 ft 464 kts 266°
2026-05-08 03:38 55.94742 -20.85855 36177 ft 464 kts 266°
2026-05-08 03:39 55.94006 -20.97187 36178 ft 463 kts 266°
2026-05-08 03:39 55.93256 -21.08564 36183 ft 464 kts 266°
2026-05-08 03:40 55.92493 -21.19959 36186 ft 464 kts 266°
2026-05-08 03:40 55.91719 -21.31369 36189 ft 464 kts 266°
2026-05-08 03:41 55.90938 -21.42722 36189 ft 464 kts 266°
2026-05-08 03:41 55.90142 -21.54127 36460 ft 466 kts 266°
2026-05-08 03:41 55.89738 -21.59865 36696 ft 465 kts 266°
2026-05-08 03:42 55.89334 -21.65554 36898 ft 464 kts 265°
2026-05-08 03:42 55.88928 -21.71230 37072 ft 465 kts 265°
2026-05-08 03:42 55.88520 -21.76912 37227 ft 465 kts 265°
2026-05-08 03:42 55.88108 -21.82604 37394 ft 465 kts 265°
2026-05-08 03:43 55.87695 -21.88287 37566 ft 465 kts 266°
2026-05-08 03:43 55.87278 -21.93971 37726 ft 466 kts 266°
2026-05-08 03:43 55.86858 -21.99655 37879 ft 466 kts 266°
2026-05-08 03:43 55.86432 -22.05383 38037 ft 466 kts 266°
2026-05-08 03:44 55.86007 -22.11059 38184 ft 466 kts 266°
2026-05-08 03:44 55.85145 -22.22475 38198 ft 466 kts 266°
2026-05-08 03:45 55.84271 -22.33930 38207 ft 466 kts 266°
2026-05-08 03:45 55.83390 -22.45315 38211 ft 467 kts 266°
2026-05-08 03:46 55.82499 -22.56692 38212 ft 467 kts 266°
2026-05-08 03:46 55.81598 -22.68055 38215 ft 468 kts 265°
2026-05-08 03:47 55.80680 -22.79485 38216 ft 468 kts 265°
2026-05-08 03:47 55.79758 -22.90821 38219 ft 467 kts 265°
2026-05-08 03:48 55.78817 -23.02258 38220 ft 467 kts 265°
2026-05-08 03:48 55.77873 -23.13599 38229 ft 468 kts 266°
2026-05-08 03:49 55.76914 -23.25024 38229 ft 468 kts 265°
2026-05-08 03:49 55.75941 -23.36463 38232 ft 468 kts 266°
2026-05-08 03:50 55.74960 -23.47845 38236 ft 468 kts 266°
2026-05-08 03:50 55.73969 -23.59219 38240 ft 468 kts 266°
2026-05-08 03:51 55.72967 -23.70611 38242 ft 468 kts 265°
2026-05-08 03:51 55.71957 -23.81971 38244 ft 468 kts 265°
2026-05-08 03:52 55.70938 -23.93298 38243 ft 468 kts 265°
2026-05-08 03:52 55.69907 -24.04639 38247 ft 468 kts 265°
2026-05-08 03:53 55.68855 -24.16086 38245 ft 468 kts 265°
2026-05-08 03:53 55.67799 -24.27450 38242 ft 469 kts 265°
2026-05-08 03:54 55.66736 -24.38795 38247 ft 468 kts 265°
2026-05-08 03:54 55.65659 -24.50136 38250 ft 468 kts 265°
2026-05-08 03:55 55.64573 -24.61468 38251 ft 468 kts 265°
2026-05-08 03:55 55.63481 -24.72769 38254 ft 469 kts 265°
2026-05-08 03:56 55.62376 -24.84067 38257 ft 469 kts 265°
2026-05-08 03:56 55.61261 -24.95368 38265 ft 470 kts 265°
2026-05-08 03:57 55.60127 -25.06735 38260 ft 469 kts 265°
2026-05-08 03:57 55.58991 -25.18029 38265 ft 469 kts 265°
2026-05-08 03:58 55.57842 -25.29316 38273 ft 469 kts 265°
2026-05-08 03:58 55.56683 -25.40614 38272 ft 468 kts 265°
2026-05-08 03:59 55.55519 -25.51862 38271 ft 468 kts 265°
2026-05-08 03:59 55.54339 -25.63150 38278 ft 468 kts 265°
2026-05-08 04:00 55.53152 -25.74380 38282 ft 469 kts 264°
2026-05-08 04:00 55.51957 -25.85603 38284 ft 468 kts 265°
2026-05-08 04:01 55.50745 -25.96863 38290 ft 469 kts 265°
2026-05-08 04:01 55.49520 -26.08156 38291 ft 469 kts 265°
2026-05-08 04:02 55.48294 -26.19346 38298 ft 468 kts 265°
2026-05-08 04:02 55.47051 -26.30600 38300 ft 468 kts 265°
2026-05-08 04:03 55.45800 -26.41823 38310 ft 468 kts 265°
2026-05-08 04:03 55.43915 -26.58553 38302 ft 467 kts 265°
2026-05-08 04:04 55.42641 -26.69741 38299 ft 467 kts 264°
2026-05-08 04:04 55.41354 -26.80938 38300 ft 468 kts 265°
2026-05-08 04:05 55.40062 -26.92109 38314 ft 468 kts 264°
2026-05-08 04:05 55.38754 -27.03286 38304 ft 469 kts 265°
2026-05-08 04:06 55.37440 -27.14422 38315 ft 468 kts 265°
2026-05-08 04:06 55.36120 -27.25536 38320 ft 468 kts 265°
2026-05-08 04:07 55.34788 -27.36658 38323 ft 467 kts 265°
2026-05-08 04:07 55.33444 -27.47770 38325 ft 467 kts 265°
2026-05-08 04:08 55.32087 -27.58912 38323 ft 468 kts 265°
2026-05-08 04:08 55.30721 -27.70031 38330 ft 467 kts 264°
2026-05-08 04:09 55.29340 -27.81186 38326 ft 469 kts 264°
2026-05-08 04:09 55.27958 -27.92270 38331 ft 470 kts 264°
2026-05-08 04:10 55.26556 -28.03394 38353 ft 468 kts 265°
2026-05-08 04:10 55.25149 -28.14487 38338 ft 468 kts 265°
2026-05-08 04:11 55.23734 -28.25577 38329 ft 468 kts 265°
2026-05-08 04:11 55.22308 -28.36663 38344 ft 469 kts 265°
2026-05-08 04:12 55.20865 -28.47772 38338 ft 467 kts 265°
2026-05-08 04:12 55.19427 -28.58765 38347 ft 468 kts 265°
2026-05-08 04:13 55.17973 -28.69789 38344 ft 467 kts 264°
2026-05-08 04:13 55.16508 -28.80837 38358 ft 468 kts 264°
2026-05-08 04:14 55.15032 -28.91870 38314 ft 467 kts 264°
2026-05-08 04:14 55.13551 -29.02861 38359 ft 467 kts 264°
2026-05-08 04:15 55.12060 -29.13855 38370 ft 468 kts 264°
2026-05-08 04:15 55.10553 -29.24863 38362 ft 469 kts 264°
2026-05-08 04:16 55.09034 -29.35893 38367 ft 468 kts 264°
2026-05-08 04:16 55.07517 -29.46812 38372 ft 466 kts 264°
2026-05-08 04:17 55.05992 -29.57725 38358 ft 465 kts 264°
2026-05-08 04:17 55.04453 -29.68658 38382 ft 464 kts 264°
2026-05-08 04:18 55.02915 -29.79529 38375 ft 465 kts 264°
2026-05-08 04:18 55.01368 -29.90378 38376 ft 465 kts 264°
2026-05-08 04:19 54.99794 -30.01301 38370 ft 465 kts 264°
2026-05-08 04:19 54.98154 -30.12167 38389 ft 467 kts 263°
2026-05-08 04:20 54.96491 -30.23036 38386 ft 466 kts 263°
2026-05-08 04:20 54.94831 -30.33851 38414 ft 465 kts 263°
2026-05-08 04:21 54.93167 -30.44635 38402 ft 464 kts 263°
2026-05-08 04:21 54.91494 -30.55417 38377 ft 464 kts 263°
2026-05-08 04:22 54.89815 -30.66175 38368 ft 464 kts 262°
2026-05-08 04:22 54.88118 -30.76982 38393 ft 464 kts 262°
2026-05-08 04:23 54.86421 -30.87701 38404 ft 464 kts 262°
2026-05-08 04:23 54.84705 -30.98472 38401 ft 463 kts 262°
2026-05-08 04:24 54.82996 -31.09139 38398 ft 462 kts 262°
2026-05-08 04:24 54.81280 -31.19786 38394 ft 462 kts 262°
2026-05-08 04:25 54.79541 -31.30503 38401 ft 462 kts 261°
2026-05-08 04:25 54.77807 -31.41126 38403 ft 461 kts 261°
2026-05-08 04:26 54.76054 -31.51793 38406 ft 460 kts 261°
2026-05-08 04:26 54.74307 -31.62364 38415 ft 460 kts 261°
2026-05-08 04:27 54.72549 -31.72933 38414 ft 460 kts 261°
2026-05-08 04:27 54.70778 -31.83514 38412 ft 459 kts 261°
2026-05-08 04:28 54.69010 -31.94019 38410 ft 458 kts 261°
2026-05-08 04:28 54.67230 -32.04531 38410 ft 458 kts 260°
2026-05-08 04:29 54.65440 -32.15039 38404 ft 457 kts 260°
2026-05-08 04:29 54.63642 -32.25529 38401 ft 457 kts 260°
2026-05-08 04:30 54.61841 -32.35970 38397 ft 456 kts 260°
2026-05-08 04:30 54.60034 -32.46393 38395 ft 456 kts 260°
2026-05-08 04:31 54.58216 -32.56820 38392 ft 455 kts 261°
2026-05-08 04:31 54.56402 -32.67159 38392 ft 455 kts 259°
2026-05-08 04:32 54.54561 -32.77593 38395 ft 455 kts 259°
2026-05-08 04:32 54.52729 -32.87918 38398 ft 454 kts 259°
2026-05-08 04:33 54.50888 -32.98231 38401 ft 454 kts 259°
2026-05-08 04:33 54.49033 -33.08566 38407 ft 453 kts 259°
2026-05-08 04:34 54.47181 -33.18821 38410 ft 452 kts 260°
2026-05-08 04:34 54.45315 -33.29103 38412 ft 452 kts 260°
2026-05-08 04:35 54.43440 -33.39378 38418 ft 451 kts 259°
2026-05-08 04:35 54.41569 -33.49571 38422 ft 450 kts 260°
2026-05-08 04:36 54.39686 -33.59772 38420 ft 450 kts 260°
2026-05-08 04:36 54.37805 -33.69904 38427 ft 449 kts 259°
2026-05-08 04:37 54.35904 -33.80100 38421 ft 449 kts 259°
2026-05-08 04:37 54.34004 -33.90232 38418 ft 449 kts 259°
2026-05-08 04:38 54.32085 -34.00400 38421 ft 447 kts 259°
2026-05-08 04:38 54.30183 -34.10432 38428 ft 446 kts 259°
2026-05-08 04:39 54.28265 -34.20495 38425 ft 447 kts 259°
2026-05-08 04:39 54.26348 -34.30510 38425 ft 446 kts 259°
2026-05-08 04:40 54.24408 -34.40565 38436 ft 445 kts 259°
2026-05-08 04:40 54.22470 -34.50574 38419 ft 444 kts 259°
2026-05-08 04:41 54.20537 -34.60501 38426 ft 442 kts 259°
2026-05-08 04:41 54.18595 -34.70428 38419 ft 442 kts 259°
2026-05-08 04:42 54.16655 -34.80298 38410 ft 439 kts 259°
2026-05-08 04:42 54.14712 -34.90118 38401 ft 438 kts 259°
2026-05-08 04:43 54.12766 -34.99922 38402 ft 440 kts 259°
2026-05-08 04:43 54.10811 -35.09719 38411 ft 441 kts 259°
2026-05-08 04:44 54.08831 -35.19587 38414 ft 440 kts 259°
2026-05-08 04:44 54.06859 -35.29367 38401 ft 440 kts 259°
2026-05-08 04:45 54.04879 -35.39138 38409 ft 439 kts 259°
2026-05-08 04:45 54.02894 -35.48881 38403 ft 438 kts 259°
2026-05-08 04:46 54.00899 -35.58625 38406 ft 437 kts 259°
2026-05-08 04:46 53.98911 -35.68299 38402 ft 438 kts 258°
2026-05-08 04:47 53.96898 -35.78050 38397 ft 437 kts 258°
2026-05-08 04:47 53.94882 -35.87746 38397 ft 438 kts 258°
2026-05-08 04:48 53.92859 -35.97439 38399 ft 439 kts 258°
2026-05-08 04:48 53.90818 -36.07175 38392 ft 438 kts 257°
2026-05-08 04:49 53.88774 -36.16872 38388 ft 438 kts 258°
2026-05-08 04:49 53.86727 -36.26538 38391 ft 438 kts 257°
2026-05-08 04:50 53.84670 -36.36213 38385 ft 437 kts 257°
2026-05-08 04:50 53.82601 -36.45884 38382 ft 438 kts 257°
2026-05-08 04:51 53.80532 -36.55521 38383 ft 438 kts 257°
2026-05-08 04:51 53.78457 -36.65136 38386 ft 437 kts 256°
2026-05-08 04:52 53.76366 -36.74779 38376 ft 438 kts 256°
2026-05-08 04:52 53.74276 -36.84376 38377 ft 438 kts 256°
2026-05-08 04:53 53.72184 -36.93935 38376 ft 438 kts 256°
2026-05-08 04:53 53.70059 -37.03601 38363 ft 437 kts 256°
2026-05-08 04:54 53.67950 -37.13146 38365 ft 436 kts 256°
2026-05-08 04:54 53.65833 -37.22692 38359 ft 436 kts 256°
2026-05-08 04:55 53.63711 -37.32211 38364 ft 435 kts 256°
2026-05-08 04:55 53.61591 -37.41676 38369 ft 435 kts 256°
2026-05-08 04:56 53.59450 -37.51193 38366 ft 434 kts 256°
2026-05-08 04:56 53.57321 -37.60615 38363 ft 433 kts 256°
2026-05-08 04:57 53.55174 -37.70081 38361 ft 434 kts 255°
2026-05-08 04:57 53.53024 -37.79500 38356 ft 433 kts 255°
2026-05-08 04:58 53.50876 -37.88882 38356 ft 434 kts 255°
2026-05-08 04:58 53.48707 -37.98317 38361 ft 434 kts 254°
2026-05-08 04:59 53.46549 -38.07655 38357 ft 432 kts 255°
2026-05-08 04:59 53.44369 -38.17046 38352 ft 432 kts 254°
2026-05-08 05:00 53.42198 -38.26371 38345 ft 431 kts 254°
2026-05-08 05:00 53.40015 -38.35680 38343 ft 430 kts 254°
2026-05-08 05:01 53.37834 -38.44964 38341 ft 430 kts 254°
2026-05-08 05:01 53.35648 -38.54218 38341 ft 429 kts 254°
2026-05-08 05:02 53.33450 -38.63492 38336 ft 427 kts 254°
2026-05-08 05:02 53.31260 -38.72686 38336 ft 427 kts 253°
2026-05-08 05:03 53.29062 -38.81881 38334 ft 427 kts 253°
2026-05-08 05:03 53.26849 -38.91088 38334 ft 426 kts 253°
2026-05-08 05:04 53.24656 -39.00180 38331 ft 425 kts 253°
2026-05-08 05:04 53.22451 -39.09284 38326 ft 425 kts 253°
2026-05-08 05:05 53.20238 -39.18381 38319 ft 425 kts 253°
2026-05-08 05:05 53.18023 -39.27449 38320 ft 424 kts 253°
2026-05-08 05:06 53.15797 -39.36528 38315 ft 424 kts 253°
2026-05-08 05:06 53.13581 -39.45532 38315 ft 423 kts 253°
2026-05-08 05:07 53.11348 -39.54563 38308 ft 423 kts 253°
2026-05-08 05:07 53.09102 -39.63612 38304 ft 423 kts 253°
2026-05-08 05:08 53.06856 -39.72627 38301 ft 424 kts 252°
2026-05-08 05:08 53.04606 -39.81632 38294 ft 423 kts 252°
2026-05-08 05:09 53.02347 -39.90616 38298 ft 423 kts 252°
2026-05-08 05:09 53.00243 -39.99597 38292 ft 419 kts 256°
2026-05-08 05:10 52.97935 -40.13503 38285 ft 418 kts 260°
2026-05-08 05:11 52.96517 -40.22812 38286 ft 418 kts 260°
2026-05-08 05:11 52.95095 -40.32120 38288 ft 418 kts 259°
2026-05-08 05:12 52.93670 -40.41391 38289 ft 418 kts 259°
2026-05-08 05:12 52.92233 -40.50680 38291 ft 417 kts 259°
2026-05-08 05:13 52.90793 -40.59940 38289 ft 418 kts 259°
2026-05-08 05:13 52.89341 -40.69231 38290 ft 417 kts 259°
2026-05-08 05:14 52.87880 -40.78524 38290 ft 418 kts 259°
2026-05-08 05:14 52.86414 -40.87808 38288 ft 417 kts 259°
2026-05-08 05:15 52.84946 -40.97046 38287 ft 418 kts 259°
2026-05-08 05:15 52.83473 -41.06271 38284 ft 418 kts 259°
2026-05-08 05:16 52.81976 -41.15585 38284 ft 419 kts 259°
2026-05-08 05:16 52.80483 -41.24826 38278 ft 418 kts 259°
2026-05-08 05:17 52.78972 -41.34112 38276 ft 418 kts 258°
2026-05-08 05:17 52.77472 -41.43301 38269 ft 418 kts 259°
2026-05-08 05:18 52.75953 -41.52550 38259 ft 418 kts 259°
2026-05-08 05:18 52.75196 -41.57143 38447 ft 418 kts 258°
2026-05-08 05:18 52.74432 -41.61768 38313 ft 418 kts 258°
2026-05-08 05:18 52.73667 -41.66380 38152 ft 418 kts 258°
2026-05-08 05:19 52.72905 -41.70959 38225 ft 420 kts 258°
2026-05-08 05:19 52.71356 -41.80238 38444 ft 419 kts 258°
2026-05-08 05:19 52.70589 -41.84813 38164 ft 419 kts 257°
2026-05-08 05:20 52.69815 -41.89415 38355 ft 419 kts 258°
2026-05-08 05:20 52.68255 -41.98656 38285 ft 419 kts 258°
2026-05-08 05:21 52.66705 -42.07804 38253 ft 418 kts 258°
2026-05-08 05:21 52.65139 -42.16997 38250 ft 418 kts 257°
2026-05-08 05:22 52.63563 -42.26185 38091 ft 418 kts 257°
2026-05-08 05:22 52.62772 -42.30776 38209 ft 419 kts 258°
2026-05-08 05:22 52.61986 -42.35342 38235 ft 418 kts 257°
2026-05-08 05:23 52.60397 -42.44510 38249 ft 419 kts 257°
2026-05-08 05:23 52.58792 -42.53724 38248 ft 419 kts 257°
2026-05-08 05:24 52.57194 -42.62861 38457 ft 419 kts 257°
2026-05-08 05:24 52.56388 -42.67441 38311 ft 417 kts 257°
2026-05-08 05:24 52.55587 -42.71994 38140 ft 417 kts 257°
2026-05-08 05:25 52.53980 -42.81091 38244 ft 418 kts 257°
2026-05-08 05:25 52.52348 -42.90277 38252 ft 419 kts 256°
2026-05-08 05:26 52.50718 -42.99406 38242 ft 420 kts 256°
2026-05-08 05:26 52.49068 -43.08594 38233 ft 421 kts 257°
2026-05-08 05:27 52.47415 -43.17759 38227 ft 421 kts 256°
2026-05-08 05:27 52.45756 -43.26902 38225 ft 420 kts 256°
2026-05-08 05:28 52.44089 -43.36059 38222 ft 420 kts 256°
2026-05-08 05:28 52.42413 -43.45203 38217 ft 420 kts 256°
2026-05-08 05:29 52.40730 -43.54341 38214 ft 419 kts 256°
2026-05-08 05:29 52.39047 -43.63441 38242 ft 418 kts 256°
2026-05-08 05:30 52.37358 -43.72529 37949 ft 418 kts 256°
2026-05-08 05:30 52.36514 -43.77052 38138 ft 419 kts 255°
2026-05-08 05:30 52.35667 -43.81586 38184 ft 419 kts 256°
2026-05-08 05:31 52.33965 -43.90659 38200 ft 419 kts 255°
2026-05-08 05:31 52.32252 -43.99741 38299 ft 418 kts 255°
2026-05-08 05:31 52.31398 -44.04249 38063 ft 417 kts 255°
2026-05-08 05:32 52.30546 -44.08741 38287 ft 418 kts 255°
2026-05-08 05:32 52.28821 -44.17796 38196 ft 418 kts 255°
2026-05-08 05:32 52.27967 -44.22275 38088 ft 417 kts 255°
2026-05-08 05:33 52.27094 -44.26834 38172 ft 417 kts 255°
2026-05-08 05:33 52.25366 -44.35826 38190 ft 416 kts 255°
2026-05-08 05:34 52.23635 -44.44780 38185 ft 417 kts 255°
2026-05-08 05:34 52.21894 -44.53756 38186 ft 416 kts 255°
2026-05-08 05:35 52.20143 -44.62737 38185 ft 415 kts 255°
2026-05-08 05:35 52.18385 -44.71700 38182 ft 416 kts 254°
2026-05-08 05:36 52.16636 -44.80601 38182 ft 415 kts 253°
2026-05-08 05:36 52.14865 -44.89554 38176 ft 416 kts 253°
2026-05-08 05:37 52.13103 -44.98427 38175 ft 414 kts 253°
2026-05-08 05:37 52.11335 -45.07293 38359 ft 414 kts 253°
2026-05-08 05:37 52.10438 -45.11761 38231 ft 412 kts 253°
2026-05-08 05:38 52.09556 -45.16152 38194 ft 411 kts 253°
2026-05-08 05:38 52.07786 -45.24942 38172 ft 410 kts 253°
2026-05-08 05:39 52.06000 -45.33761 38165 ft 409 kts 254°
2026-05-08 05:39 52.04239 -45.42445 38166 ft 408 kts 253°
2026-05-08 05:40 52.02460 -45.51162 38156 ft 406 kts 254°
2026-05-08 05:40 52.00687 -45.59811 38164 ft 405 kts 254°
2026-05-08 05:41 51.98914 -45.68420 38162 ft 403 kts 253°
2026-05-08 05:41 51.97133 -45.77046 38159 ft 403 kts 253°
2026-05-08 05:42 51.95359 -45.85575 38155 ft 401 kts 253°
2026-05-08 05:42 51.93573 -45.94128 38153 ft 399 kts 253°
2026-05-08 05:43 51.91803 -46.02604 38151 ft 398 kts 254°
2026-05-08 05:43 51.90035 -46.10992 38164 ft 396 kts 254°
2026-05-08 05:44 51.88274 -46.19330 38146 ft 392 kts 255°
2026-05-08 05:44 51.86503 -46.27689 38148 ft 391 kts 255°
2026-05-08 05:45 51.84748 -46.35935 38141 ft 391 kts 255°
2026-05-08 05:45 51.82988 -46.44177 38130 ft 387 kts 255°
2026-05-08 05:46 51.81228 -46.52380 38128 ft 388 kts 256°
2026-05-08 05:46 51.79459 -46.60572 38121 ft 387 kts 255°
2026-05-08 05:47 51.77699 -46.68724 38124 ft 385 kts 255°
2026-05-08 05:47 51.75938 -46.76827 38119 ft 382 kts 255°
2026-05-08 05:48 51.74182 -46.84887 38110 ft 381 kts 255°
2026-05-08 05:48 51.72435 -46.92858 38109 ft 381 kts 256°
2026-05-08 05:49 51.70671 -47.00886 38110 ft 380 kts 256°
2026-05-08 05:49 51.68908 -47.08866 38106 ft 380 kts 255°
2026-05-08 05:50 51.67144 -47.16866 38097 ft 381 kts 255°
2026-05-08 05:50 51.65373 -47.24838 38093 ft 378 kts 255°
2026-05-08 05:51 51.63604 -47.32760 38090 ft 379 kts 255°
2026-05-08 05:51 51.61822 -47.40695 38083 ft 379 kts 256°
2026-05-08 05:52 51.60046 -47.48610 38065 ft 376 kts 256°
2026-05-08 05:52 51.58268 -47.56474 38059 ft 378 kts 256°
2026-05-08 05:53 51.56484 -47.64383 38062 ft 374 kts 254°
2026-05-08 05:53 51.54694 -47.72247 38060 ft 377 kts 256°
2026-05-08 05:54 51.52905 -47.80091 38049 ft 376 kts 255°
2026-05-08 05:54 51.51096 -47.87974 38041 ft 376 kts 255°
2026-05-08 05:55 51.49314 -47.95748 38035 ft 374 kts 253°
2026-05-08 05:55 51.47505 -48.03568 38032 ft 375 kts 255°
2026-05-08 05:56 51.45702 -48.11367 38031 ft 375 kts 256°
2026-05-08 05:56 51.43876 -48.19204 38025 ft 376 kts 253°
2026-05-08 05:57 51.42064 -48.26958 38019 ft 374 kts 253°
2026-05-08 05:57 51.40236 -48.34781 38021 ft 374 kts 253°
2026-05-08 05:58 51.38429 -48.42468 38019 ft 373 kts 255°
2026-05-08 05:58 51.36594 -48.50232 38017 ft 372 kts 253°
2026-05-08 05:59 51.34769 -48.57932 38017 ft 374 kts 254°
2026-05-08 05:59 51.32925 -48.65694 38016 ft 374 kts 253°
2026-05-08 06:00 51.31107 -48.73350 38009 ft 370 kts 254°
2026-05-08 06:00 51.29266 -48.81021 38002 ft 370 kts 253°
2026-05-08 06:01 51.27430 -48.88663 37996 ft 370 kts 254°
2026-05-08 06:01 51.25579 -48.96341 37995 ft 373 kts 254°
2026-05-08 06:02 51.23725 -49.04022 37988 ft 371 kts 255°
2026-05-08 06:02 51.21869 -49.11682 37988 ft 371 kts 253°
2026-05-08 06:03 51.20020 -49.19271 37985 ft 369 kts 253°
2026-05-08 06:03 51.18175 -49.26848 37993 ft 368 kts 252°
2026-05-08 06:04 51.16316 -49.34409 37992 ft 369 kts 253°
2026-05-08 06:04 51.14447 -49.42017 37989 ft 368 kts 254°
2026-05-08 06:05 51.12597 -49.49514 37973 ft 366 kts 253°
2026-05-08 06:05 51.10735 -49.57040 37964 ft 365 kts 252°
2026-05-08 06:06 51.08877 -49.64497 37971 ft 367 kts 253°
2026-05-08 06:06 51.06999 -49.72045 37957 ft 367 kts 252°
2026-05-08 06:07 51.05120 -49.79575 37965 ft 367 kts 252°
2026-05-08 06:07 51.03242 -49.87070 37949 ft 367 kts 251°
2026-05-08 06:08 51.01360 -49.94550 37935 ft 366 kts 251°
2026-05-08 06:08 50.99484 -50.02007 37918 ft 366 kts 252°
2026-05-08 06:09 50.97664 -50.09578 37909 ft 366 kts 251°
2026-05-08 06:09 50.95867 -50.17066 37905 ft 367 kts 252°
2026-05-08 06:10 50.94060 -50.24596 37895 ft 366 kts 252°
2026-05-08 06:10 50.92238 -50.32110 37889 ft 368 kts 252°
2026-05-08 06:11 50.90401 -50.39677 37887 ft 368 kts 252°
2026-05-08 06:11 50.88575 -50.47198 37878 ft 366 kts 251°
2026-05-08 06:12 50.86744 -50.54658 37871 ft 367 kts 252°
2026-05-08 06:12 50.84898 -50.62180 37865 ft 368 kts 252°
2026-05-08 06:13 50.83051 -50.69710 37869 ft 367 kts 251°
2026-05-08 06:13 50.81195 -50.77218 37853 ft 366 kts 250°
2026-05-08 06:14 50.79335 -50.84718 37849 ft 368 kts 251°
2026-05-08 06:14 50.77496 -50.92134 37842 ft 365 kts 250°
2026-05-08 06:15 50.75634 -50.99593 37842 ft 365 kts 250°
2026-05-08 06:15 50.73770 -51.07037 37833 ft 365 kts 250°
2026-05-08 06:16 50.71898 -51.14485 37830 ft 365 kts 250°
2026-05-08 06:16 50.70030 -51.21880 37832 ft 365 kts 250°
2026-05-08 06:17 50.67214 -51.33016 37831 ft 365 kts 250°
2026-05-08 06:17 50.65334 -51.40428 37817 ft 365 kts 249°
2026-05-08 06:18 50.63450 -51.47816 37818 ft 365 kts 250°
2026-05-08 06:18 50.61557 -51.55203 37811 ft 364 kts 250°
2026-05-08 06:19 50.59674 -51.62547 37801 ft 364 kts 250°
2026-05-08 06:19 50.57776 -51.69923 37802 ft 364 kts 250°
2026-05-08 06:20 50.55891 -51.77249 37798 ft 364 kts 248°
2026-05-08 06:20 50.53992 -51.84573 37796 ft 363 kts 249°
2026-05-08 06:21 50.52081 -51.91951 37798 ft 365 kts 249°
2026-05-08 06:21 50.50169 -51.99301 37795 ft 365 kts 250°
2026-05-08 06:22 50.48432 -52.06685 37788 ft 363 kts 250°
2026-05-08 06:22 50.46689 -52.14115 37782 ft 364 kts 250°
2026-05-08 06:23 50.44944 -52.21541 37787 ft 362 kts 249°
2026-05-08 06:23 50.43197 -52.28955 37783 ft 363 kts 249°
2026-05-08 06:24 50.41459 -52.36337 37784 ft 363 kts 250°
2026-05-08 06:24 50.39712 -52.43710 37773 ft 363 kts 249°
2026-05-08 06:25 50.37960 -52.51090 37772 ft 363 kts 249°
2026-05-08 06:25 50.36207 -52.58458 37774 ft 364 kts 248°
2026-05-08 06:26 50.34430 -52.65883 37768 ft 362 kts 249°
2026-05-08 06:26 50.32663 -52.73239 37758 ft 363 kts 248°
2026-05-08 06:27 50.30900 -52.80588 37755 ft 362 kts 248°
2026-05-08 06:27 50.29134 -52.87912 37745 ft 362 kts 248°
2026-05-08 06:28 50.27338 -52.95289 37744 ft 363 kts 248°
2026-05-08 06:28 50.25561 -53.02626 37737 ft 365 kts 248°
2026-05-08 06:29 50.23761 -53.10012 37732 ft 362 kts 248°
2026-05-08 06:29 50.21966 -53.17340 37732 ft 363 kts 248°
2026-05-08 06:30 50.20161 -53.24667 37734 ft 363 kts 248°
2026-05-08 06:30 50.18379 -53.31929 37729 ft 361 kts 247°
2026-05-08 06:31 50.16575 -53.39224 37735 ft 362 kts 247°
2026-05-08 06:31 50.14767 -53.46534 37728 ft 362 kts 248°
2026-05-08 06:32 50.12951 -53.53800 37732 ft 360 kts 248°
2026-05-08 06:32 50.11143 -53.61066 37729 ft 361 kts 247°
2026-05-08 06:33 50.09325 -53.68336 37720 ft 361 kts 246°
2026-05-08 06:33 50.07509 -53.75558 37715 ft 362 kts 245°
2026-05-08 06:34 50.05677 -53.82833 37711 ft 362 kts 245°
2026-05-08 06:34 50.03843 -53.90094 37712 ft 362 kts 246°
2026-05-08 06:35 50.01998 -53.97348 37707 ft 362 kts 246°
2026-05-08 06:35 50.00166 -54.04568 37709 ft 363 kts 246°
2026-05-08 06:36 49.98296 -54.11871 37700 ft 363 kts 245°
2026-05-08 06:36 49.96440 -54.19129 37696 ft 363 kts 245°
2026-05-08 06:37 49.94573 -54.26397 37694 ft 363 kts 246°
2026-05-08 06:37 49.92706 -54.33628 37691 ft 363 kts 244°
2026-05-08 06:38 49.90836 -54.40884 37693 ft 364 kts 244°
2026-05-08 06:38 49.88950 -54.48135 37690 ft 362 kts 245°
2026-05-08 06:39 49.87081 -54.55335 37679 ft 363 kts 244°
2026-05-08 06:39 49.85190 -54.62549 37679 ft 361 kts 245°
2026-05-08 06:40 49.83295 -54.69793 37677 ft 361 kts 244°
2026-05-08 06:40 49.81424 -54.76922 37673 ft 361 kts 244°
2026-05-08 06:41 49.79529 -54.84117 37677 ft 361 kts 243°
2026-05-08 06:41 49.77627 -54.91323 37671 ft 363 kts 244°
2026-05-08 06:42 49.75737 -54.98456 37668 ft 363 kts 243°
2026-05-08 06:42 49.73826 -55.05650 37666 ft 364 kts 243°
2026-05-08 06:43 49.71899 -55.12849 37664 ft 362 kts 243°
2026-05-08 06:43 49.69985 -55.20006 37662 ft 362 kts 243°
2026-05-08 06:44 49.68065 -55.27155 37661 ft 362 kts 243°
2026-05-08 06:44 49.66128 -55.34349 37653 ft 362 kts 243°
2026-05-08 06:45 49.64199 -55.41504 37656 ft 363 kts 243°
2026-05-08 06:45 49.62264 -55.48646 37657 ft 363 kts 243°
2026-05-08 06:46 49.60329 -55.55764 37659 ft 363 kts 242°
2026-05-08 06:46 49.58376 -55.62903 37658 ft 362 kts 242°
2026-05-08 06:47 49.56428 -55.70050 37653 ft 362 kts 241°
2026-05-08 06:47 49.54474 -55.77163 37648 ft 363 kts 241°
2026-05-08 06:48 49.52521 -55.84271 37648 ft 361 kts 242°
2026-05-08 06:48 49.50570 -55.91357 37642 ft 362 kts 241°
2026-05-08 06:49 49.48608 -55.98429 37646 ft 361 kts 242°
2026-05-08 06:49 49.46646 -56.05501 37636 ft 362 kts 241°
2026-05-08 06:50 49.44668 -56.12571 37636 ft 358 kts 242°
2026-05-08 06:50 49.42720 -56.19576 37630 ft 359 kts 240°
2026-05-08 06:51 49.40743 -56.26632 37626 ft 359 kts 240°
2026-05-08 06:51 49.38784 -56.33585 37631 ft 357 kts 240°
2026-05-08 06:52 49.36811 -56.40595 37636 ft 357 kts 240°
2026-05-08 06:52 49.34840 -56.47578 37633 ft 359 kts 241°
2026-05-08 06:53 49.32846 -56.54593 37635 ft 356 kts 241°
2026-05-08 06:53 49.30878 -56.61539 37636 ft 357 kts 240°
2026-05-08 06:54 49.28894 -56.68496 37639 ft 355 kts 239°
2026-05-08 06:54 49.27911 -56.71952 37353 ft 356 kts 239°
2026-05-08 06:54 49.26915 -56.75420 37537 ft 357 kts 239°
2026-05-08 06:55 49.24922 -56.82377 37621 ft 356 kts 240°
2026-05-08 06:55 49.22925 -56.89311 37629 ft 355 kts 239°
2026-05-08 06:56 49.20945 -56.96174 37634 ft 354 kts 239°
2026-05-08 06:56 49.18968 -57.03012 37633 ft 352 kts 241°
2026-05-08 06:57 49.16993 -57.09834 37626 ft 355 kts 239°
2026-05-08 06:57 49.15000 -57.16669 37634 ft 353 kts 239°
2026-05-08 06:58 49.12990 -57.23574 37634 ft 356 kts 240°
2026-05-08 06:58 49.10989 -57.30400 37631 ft 352 kts 240°
2026-05-08 06:59 49.09004 -57.37168 37632 ft 352 kts 239°
2026-05-08 06:59 49.07004 -57.43978 37632 ft 354 kts 240°
2026-05-08 07:00 49.04989 -57.50816 37635 ft 355 kts 238°
2026-05-08 07:00 49.02961 -57.57643 37642 ft 354 kts 239°